Location: Tucson
(32.2217°N, 110.9265°W)
Time: 19:51:04
(UTC-07:00)

A-11 Canister half - Pass Details

Date: 31 October 2021
Orbit: 1516 x 1684 km, 47.2° (Epoch: 28 November)

Event Time Altitude Azimuth Distance (km) Brightness Sun altitude
Rises 19:01:22 0° 286° (WNW) 4,930 12.9 -18.9°
Reaches altitude 10° 19:05:04 10° 296° (WNW) 3,932 12.0 -19.7°
Maximum altitude 19:13:56 33° 358° (N) 2,501 10.0 -21.6°
Enters shadow 19:19:13 21° 44° (NE) 3,064 10.1 -22.7°
